HAZ5425 ZBAD-ZSHC

Flight info

Callsign HAZ5425
Flight time 1h 31m
Altitude 39100
Route ELKUR4K ELKUR W40 YQG W142 DALIM A593 DPX A470 IGRAT IGRAT91
Aircraft A339/H-SADE1E2E3GHIJ3J5M1P2RWXY/LB2D1

Departure

Time 2026-04-15 13:32
Airport Beijing Daxing International Airport (ZBAD)

Arrival

Time 2026-04-15 15:03
Airport Hangzhou Xiaoshan International Airport (ZSHC)
Time Latitude Longitude Altitude Speed Heading
2026-04-15 13:10 39.51375 116.41691 99 ft 0 kts 232°
2026-04-15 13:22 39.51376 116.41691 99 ft 0 kts 232°
2026-04-15 13:22 39.51384 116.41705 99 ft 2 kts 232°
2026-04-15 13:22 39.51393 116.41721 99 ft 2 kts 232°
2026-04-15 13:22 39.51402 116.41736 99 ft 2 kts 232°
2026-04-15 13:23 39.51409 116.41748 99 ft 0 kts 232°
2026-04-15 13:23 39.51418 116.41760 99 ft 2 kts 213°
2026-04-15 13:23 39.51431 116.41768 99 ft 2 kts 187°
2026-04-15 13:23 39.51447 116.41767 99 ft 2 kts 163°
2026-04-15 13:24 39.51457 116.41762 99 ft 0 kts 144°
2026-04-15 13:24 39.51461 116.41758 99 ft 0 kts 143°
2026-04-15 13:26 39.51460 116.41759 99 ft 0 kts 143°
2026-04-15 13:26 39.51449 116.41769 99 ft 3 kts 143°
2026-04-15 13:27 39.51406 116.41816 99 ft 12 kts 129°
2026-04-15 13:27 39.51401 116.41953 99 ft 18 kts 87°
2026-04-15 13:27 39.51409 116.42120 99 ft 18 kts 82°
2026-04-15 13:27 39.51424 116.42287 99 ft 18 kts 84°
2026-04-15 13:28 39.51439 116.42451 99 ft 18 kts 82°
2026-04-15 13:28 39.51456 116.42616 99 ft 18 kts 82°
2026-04-15 13:28 39.51472 116.42781 99 ft 18 kts 82°
2026-04-15 13:28 39.51487 116.42945 99 ft 18 kts 84°
2026-04-15 13:29 39.51506 116.43076 99 ft 8 kts 56°
2026-04-15 13:29 39.51558 116.43107 99 ft 5 kts 12°
2026-04-15 13:29 39.51561 116.43108 99 ft 0 kts 12°
2026-04-15 13:31 39.51572 116.43111 99 ft 8 kts 12°
2026-04-15 13:31 39.51654 116.43228 99 ft 28 kts 97°
2026-04-15 13:31 39.51581 116.43615 99 ft 73 kts 103°
2026-04-15 13:32 39.51421 116.44514 99 ft 131 kts 103°
2026-04-15 13:32 39.51168 116.45818 385 ft 154 kts 104°
2026-04-15 13:32 39.50932 116.47147 942 ft 153 kts 105°
2026-04-15 13:32 39.50701 116.48486 1484 ft 156 kts 107°
2026-04-15 13:33 39.50461 116.49858 1995 ft 161 kts 108°
2026-04-15 13:33 39.50193 116.51329 2369 ft 177 kts 108°
2026-04-15 13:33 39.49896 116.52954 2747 ft 194 kts 108°
2026-04-15 13:33 39.49576 116.54725 3205 ft 207 kts 108°
2026-04-15 13:34 39.49239 116.56590 3629 ft 222 kts 108°
2026-04-15 13:34 39.48874 116.58599 4024 ft 240 kts 108°
2026-04-15 13:34 39.48476 116.60802 4458 ft 257 kts 107°
2026-04-15 13:34 39.48072 116.63055 5058 ft 265 kts 107°
2026-04-15 13:35 39.47691 116.65454 5623 ft 277 kts 105°
2026-04-15 13:35 39.47332 116.67902 6373 ft 280 kts 104°
2026-04-15 13:35 39.46972 116.70358 7139 ft 282 kts 104°
2026-04-15 13:35 39.46609 116.72832 7896 ft 284 kts 104°
2026-04-15 13:36 39.46212 116.75354 8677 ft 285 kts 109°
2026-04-15 13:36 39.45269 116.77511 9427 ft 279 kts 138°
2026-04-15 13:36 39.43665 116.78845 10194 ft 276 kts 160°
2026-04-15 13:36 39.41828 116.79753 10671 ft 289 kts 161°
2026-04-15 13:37 39.39908 116.80697 10998 ft 306 kts 160°
2026-04-15 13:37 39.37851 116.81720 11312 ft 324 kts 160°
2026-04-15 13:37 39.35686 116.82811 11614 ft 342 kts 160°
2026-04-15 13:37 39.33445 116.83945 12020 ft 355 kts 160°
2026-04-15 13:38 39.31123 116.85120 12664 ft 361 kts 160°
2026-04-15 13:38 39.28774 116.86308 13325 ft 366 kts 160°
2026-04-15 13:38 39.26385 116.87516 13965 ft 372 kts 160°
2026-04-15 13:38 39.23989 116.88729 14592 ft 377 kts 160°
2026-04-15 13:39 39.21542 116.89967 15252 ft 381 kts 160°
2026-04-15 13:39 39.19052 116.91226 15993 ft 383 kts 161°
2026-04-15 13:39 39.16576 116.92474 16699 ft 386 kts 161°
2026-04-15 13:39 39.14080 116.93729 17322 ft 390 kts 161°
2026-04-15 13:40 39.11531 116.95010 17951 ft 395 kts 161°
2026-04-15 13:40 39.08962 116.96303 18577 ft 400 kts 161°
2026-04-15 13:40 39.06370 116.97606 19212 ft 403 kts 161°
2026-04-15 13:40 39.03766 116.98917 19846 ft 407 kts 162°
2026-04-15 13:41 39.01115 117.00248 20467 ft 410 kts 162°
2026-04-15 13:41 38.98443 117.01588 21065 ft 413 kts 162°
2026-04-15 13:41 38.95741 117.02943 21645 ft 417 kts 162°
2026-04-15 13:41 38.93043 117.04297 22199 ft 420 kts 162°
2026-04-15 13:42 38.90322 117.05657 22756 ft 423 kts 163°
2026-04-15 13:42 38.87502 117.06686 23263 ft 418 kts 178°
2026-04-15 13:42 38.84649 117.06517 23798 ft 410 kts 196°
2026-04-15 13:42 38.82014 117.05287 24320 ft 403 kts 213°
2026-04-15 13:43 38.79798 117.03165 24797 ft 399 kts 228°
2026-04-15 13:43 38.78146 117.00322 25266 ft 397 kts 243°
2026-04-15 13:43 38.76865 116.97200 25584 ft 403 kts 243°
2026-04-15 13:43 38.75536 116.94016 25763 ft 412 kts 243°
2026-04-15 13:44 38.74162 116.90744 26086 ft 417 kts 243°
2026-04-15 13:44 38.72785 116.87467 26538 ft 419 kts 243°
2026-04-15 13:44 38.71412 116.84206 26997 ft 420 kts 243°
2026-04-15 13:44 38.70017 116.80894 27435 ft 421 kts 244°
2026-04-15 13:45 38.68636 116.77615 27842 ft 423 kts 244°
2026-04-15 13:45 38.67239 116.74316 28210 ft 425 kts 242°
2026-04-15 13:45 38.65497 116.71268 28559 ft 432 kts 230°
2026-04-15 13:47 38.44855 116.64318 31042 ft 471 kts 192°
2026-04-15 13:47 38.41611 116.63949 31034 ft 459 kts 192°
2026-04-15 13:47 38.38479 116.63611 31040 ft 451 kts 191°
2026-04-15 13:48 38.32188 116.63491 31048 ft 456 kts 184°
2026-04-15 13:48 38.25852 116.64294 31053 ft 462 kts 178°
2026-04-15 13:49 38.19525 116.66061 31051 ft 469 kts 171°
2026-04-15 13:49 38.13256 116.68396 31052 ft 470 kts 170°
2026-04-15 13:50 38.06974 116.70763 31051 ft 471 kts 170°
2026-04-15 13:50 38.00735 116.73144 31061 ft 471 kts 169°
2026-04-15 13:51 37.94458 116.75538 31056 ft 471 kts 170°
2026-04-15 13:51 37.88199 116.77917 31058 ft 470 kts 169°
2026-04-15 13:52 37.81937 116.80293 31058 ft 470 kts 170°
2026-04-15 13:52 37.75656 116.82669 31055 ft 470 kts 169°
2026-04-15 13:53 37.69373 116.85043 31057 ft 470 kts 169°
2026-04-15 13:53 37.63137 116.87397 31057 ft 469 kts 170°
2026-04-15 13:54 37.56872 116.89754 31056 ft 470 kts 170°
2026-04-15 13:54 37.50606 116.92110 31050 ft 470 kts 170°
2026-04-15 13:55 37.44358 116.94456 31058 ft 469 kts 170°
2026-04-15 13:55 37.38114 116.96794 31054 ft 469 kts 170°
2026-04-15 13:56 37.31854 116.99134 31058 ft 470 kts 170°
2026-04-15 13:56 37.25641 117.01826 31053 ft 474 kts 166°
2026-04-15 13:57 37.19471 117.04724 31060 ft 473 kts 166°
2026-04-15 13:57 37.13311 117.07605 31055 ft 472 kts 166°
2026-04-15 13:58 37.07168 117.10473 31055 ft 471 kts 166°
2026-04-15 13:58 37.01036 117.13331 31058 ft 471 kts 166°
2026-04-15 13:59 36.94890 117.16189 31055 ft 472 kts 166°
2026-04-15 13:59 36.88701 117.18846 31063 ft 468 kts 171°
2026-04-15 14:00 36.82420 117.20622 31061 ft 460 kts 177°
2026-04-15 14:00 36.76085 117.21467 31069 ft 455 kts 184°
2026-04-15 14:01 36.66645 117.21497 31072 ft 452 kts 187°
2026-04-15 14:02 36.60350 117.21452 31093 ft 452 kts 187°
2026-04-15 14:02 36.54038 117.21411 31105 ft 452 kts 187°
2026-04-15 14:03 36.47766 117.21448 31116 ft 455 kts 184°
2026-04-15 14:03 36.41395 117.22199 31111 ft 460 kts 178°
2026-04-15 14:04 36.35117 117.23820 31102 ft 466 kts 171°
2026-04-15 14:04 36.28877 117.26108 31106 ft 468 kts 169°
2026-04-15 14:05 36.22602 117.28445 31100 ft 469 kts 169°
2026-04-15 14:05 36.16372 117.30756 31095 ft 470 kts 170°
2026-04-15 14:06 36.10101 117.33079 31101 ft 470 kts 169°
2026-04-15 14:06 36.03836 117.35394 31102 ft 469 kts 169°
2026-04-15 14:07 35.97592 117.37704 31104 ft 469 kts 169°
2026-04-15 14:07 35.91360 117.40039 31107 ft 471 kts 169°
2026-04-15 14:08 35.85093 117.42387 31103 ft 471 kts 169°
2026-04-15 14:08 35.78817 117.44730 31109 ft 471 kts 169°
2026-04-15 14:09 35.72517 117.47081 31105 ft 472 kts 169°
2026-04-15 14:09 35.66227 117.49423 31108 ft 473 kts 169°
2026-04-15 14:10 35.59935 117.51759 31104 ft 472 kts 169°
2026-04-15 14:10 35.53650 117.54089 31109 ft 474 kts 169°
2026-04-15 14:11 35.47316 117.56439 31104 ft 473 kts 169°
2026-04-15 14:11 35.41009 117.58768 31102 ft 475 kts 169°
2026-04-15 14:12 35.34701 117.61098 31105 ft 476 kts 169°
2026-04-15 14:12 35.28354 117.63440 31113 ft 476 kts 169°
2026-04-15 14:13 35.22036 117.65765 31107 ft 475 kts 170°
2026-04-15 14:13 35.15696 117.68095 31109 ft 475 kts 170°
2026-04-15 14:14 35.09358 117.70419 31110 ft 476 kts 170°
2026-04-15 14:14 35.03012 117.72742 31108 ft 477 kts 170°
2026-04-15 14:15 34.96658 117.75071 31100 ft 476 kts 170°
2026-04-15 14:15 34.90337 117.77384 31108 ft 477 kts 170°
2026-04-15 14:16 34.83968 117.79711 31108 ft 476 kts 170°
2026-04-15 14:16 34.77649 117.82011 31106 ft 477 kts 170°
2026-04-15 14:17 34.71279 117.84300 31108 ft 477 kts 170°
2026-04-15 14:17 34.64933 117.86580 31111 ft 477 kts 170°
2026-04-15 14:18 34.58520 117.88879 31113 ft 478 kts 170°
2026-04-15 14:18 34.52187 117.91151 31115 ft 477 kts 170°
2026-04-15 14:19 34.45786 117.93443 31114 ft 479 kts 170°
2026-04-15 14:19 34.39389 117.95727 31118 ft 477 kts 170°
2026-04-15 14:20 34.33032 117.97999 31116 ft 476 kts 170°
2026-04-15 14:20 34.26660 118.00267 31115 ft 479 kts 170°
2026-04-15 14:21 34.20301 118.02583 31116 ft 478 kts 170°
2026-04-15 14:21 34.13947 118.04905 31117 ft 478 kts 170°
2026-04-15 14:22 34.07573 118.07222 31115 ft 478 kts 170°
2026-04-15 14:22 34.01212 118.09530 31119 ft 478 kts 170°
2026-04-15 14:23 33.94857 118.11842 31115 ft 479 kts 170°
2026-04-15 14:23 33.88462 118.14170 31117 ft 480 kts 169°
2026-04-15 14:24 33.82072 118.16496 31115 ft 478 kts 169°
2026-04-15 14:24 33.75721 118.18803 31115 ft 479 kts 169°
2026-04-15 14:25 33.69328 118.21131 31114 ft 478 kts 169°
2026-04-15 14:25 33.62973 118.23441 31110 ft 478 kts 169°
2026-04-15 14:26 33.56640 118.25739 31107 ft 477 kts 169°
2026-04-15 14:26 33.50263 118.28052 31107 ft 477 kts 169°
2026-04-15 14:27 33.43932 118.30344 31106 ft 476 kts 169°
2026-04-15 14:27 33.37588 118.32636 31105 ft 478 kts 169°
2026-04-15 14:28 33.31205 118.34938 31103 ft 477 kts 169°
2026-04-15 14:28 33.24876 118.37221 31104 ft 476 kts 169°
2026-04-15 14:29 33.18512 118.39510 31101 ft 477 kts 169°
2026-04-15 14:29 33.12170 118.41795 31097 ft 475 kts 169°
2026-04-15 14:30 33.05835 118.44071 31097 ft 476 kts 168°
2026-04-15 14:30 32.99481 118.46354 31096 ft 476 kts 168°
2026-04-15 14:31 32.93154 118.48625 31092 ft 475 kts 168°
2026-04-15 14:31 32.86829 118.50889 31095 ft 476 kts 169°
2026-04-15 14:32 32.80465 118.53164 31093 ft 475 kts 169°
2026-04-15 14:32 32.74153 118.55417 31091 ft 476 kts 169°
2026-04-15 14:33 32.67812 118.57711 31090 ft 476 kts 167°
2026-04-15 14:33 32.61586 118.60459 31091 ft 479 kts 164°
2026-04-15 14:34 32.55372 118.63292 31090 ft 478 kts 164°
2026-04-15 14:34 32.49132 118.66135 31082 ft 477 kts 165°
2026-04-15 14:35 32.42966 118.68938 31083 ft 477 kts 165°
2026-04-15 14:35 32.36768 118.71751 31088 ft 476 kts 165°
2026-04-15 14:36 32.30599 118.74546 31093 ft 476 kts 165°
2026-04-15 14:36 32.24380 118.77357 31086 ft 477 kts 165°
2026-04-15 14:37 32.18157 118.80170 31088 ft 478 kts 165°
2026-04-15 14:37 32.11954 118.82970 31094 ft 477 kts 165°
2026-04-15 14:38 32.05767 118.85759 31094 ft 477 kts 165°
2026-04-15 14:38 31.99561 118.88552 31087 ft 475 kts 165°
2026-04-15 14:39 31.93394 118.91322 31090 ft 476 kts 165°
2026-04-15 14:39 31.87191 118.94104 31095 ft 476 kts 165°
2026-04-15 14:40 31.80987 118.96886 31097 ft 477 kts 166°
2026-04-15 14:40 31.74770 118.99674 31090 ft 479 kts 166°
2026-04-15 14:41 31.68545 119.02468 31082 ft 479 kts 166°
2026-04-15 14:41 31.62249 119.04918 31081 ft 472 kts 172°
2026-04-15 14:42 31.56051 119.07548 31006 ft 480 kts 160°
2026-04-15 14:42 31.53158 119.09564 30578 ft 486 kts 152°
2026-04-15 14:42 31.50438 119.11885 29849 ft 491 kts 149°
2026-04-15 14:42 31.47709 119.14322 29045 ft 495 kts 148°
2026-04-15 14:43 31.44981 119.16754 28253 ft 497 kts 148°
2026-04-15 14:43 31.42206 119.19200 27433 ft 499 kts 148°
2026-04-15 14:43 31.39458 119.21606 26636 ft 500 kts 148°
2026-04-15 14:43 31.36662 119.24046 25820 ft 502 kts 148°
2026-04-15 14:44 31.33843 119.26503 25074 ft 501 kts 148°
2026-04-15 14:44 31.31078 119.28912 24456 ft 498 kts 148°
2026-04-15 14:44 31.28323 119.31316 23887 ft 495 kts 148°
2026-04-15 14:44 31.25590 119.33695 23336 ft 491 kts 147°
2026-04-15 14:45 31.22854 119.36076 22954 ft 483 kts 148°
2026-04-15 14:45 31.20168 119.38411 22421 ft 479 kts 148°
2026-04-15 14:45 31.17518 119.40716 21827 ft 477 kts 147°
2026-04-15 14:45 31.14880 119.43022 21593 ft 466 kts 147°
2026-04-15 14:46 31.12319 119.45267 21286 ft 458 kts 147°
2026-04-15 14:46 31.09767 119.47497 20704 ft 457 kts 148°
2026-04-15 14:46 31.07232 119.49706 19969 ft 461 kts 147°
2026-04-15 14:46 31.04663 119.51941 19244 ft 463 kts 147°
2026-04-15 14:47 31.02092 119.54179 18579 ft 463 kts 147°
2026-04-15 14:47 30.99504 119.56434 18062 ft 460 kts 147°
2026-04-15 14:47 30.96954 119.58657 17604 ft 455 kts 147°
2026-04-15 14:47 30.94461 119.60826 17218 ft 449 kts 147°
2026-04-15 14:48 30.91945 119.63014 16688 ft 446 kts 147°
2026-04-15 14:48 30.89474 119.65159 16164 ft 443 kts 147°
2026-04-15 14:48 30.87018 119.67293 15692 ft 439 kts 147°
2026-04-15 14:48 30.84568 119.69418 15230 ft 434 kts 147°
2026-04-15 14:49 30.82184 119.71487 14921 ft 425 kts 147°
2026-04-15 14:49 30.79846 119.73515 14697 ft 415 kts 147°
2026-04-15 14:49 30.77549 119.75506 14306 ft 410 kts 146°
2026-04-15 14:49 30.75270 119.77475 13747 ft 411 kts 146°
2026-04-15 14:50 30.72960 119.79469 13142 ft 411 kts 146°
2026-04-15 14:50 30.70679 119.81459 12576 ft 410 kts 144°
2026-04-15 14:50 30.68444 119.83495 12329 ft 401 kts 144°
2026-04-15 14:50 30.66296 119.85469 12112 ft 390 kts 144°
2026-04-15 14:51 30.64106 119.87319 11638 ft 387 kts 148°
2026-04-15 14:51 30.61802 119.88953 11097 ft 386 kts 153°
2026-04-15 14:51 30.59466 119.90447 10630 ft 383 kts 153°
2026-04-15 14:51 30.57129 119.91921 10304 ft 376 kts 153°
2026-04-15 14:52 30.54874 119.93346 10131 ft 366 kts 153°
2026-04-15 14:52 30.52662 119.94747 9951 ft 356 kts 153°
2026-04-15 14:52 30.50529 119.96099 9783 ft 346 kts 153°
2026-04-15 14:52 30.48439 119.97422 9623 ft 337 kts 153°
2026-04-15 14:53 30.46414 119.98704 9418 ft 326 kts 153°
2026-04-15 14:53 30.44445 119.99951 9236 ft 316 kts 153°
2026-04-15 14:53 30.42556 120.01148 9052 ft 306 kts 153°
2026-04-15 14:53 30.40710 120.02316 8877 ft 296 kts 153°
2026-04-15 14:54 30.38925 120.03445 8715 ft 287 kts 153°
2026-04-15 14:54 30.37182 120.04549 8555 ft 279 kts 153°
2026-04-15 14:54 30.35493 120.05617 8399 ft 270 kts 153°
2026-04-15 14:54 30.33849 120.06657 8240 ft 262 kts 153°
2026-04-15 14:55 30.32287 120.07644 8088 ft 254 kts 153°
2026-04-15 14:55 30.30747 120.08617 7929 ft 245 kts 153°
2026-04-15 14:55 30.29275 120.09547 7775 ft 237 kts 153°
2026-04-15 14:55 30.27854 120.10444 7624 ft 229 kts 153°
2026-04-15 14:56 30.26465 120.11327 7431 ft 224 kts 151°
2026-04-15 14:56 30.25153 120.12263 7172 ft 223 kts 148°
2026-04-15 14:56 30.23854 120.13235 6899 ft 221 kts 148°
2026-04-15 14:56 30.22590 120.14181 6654 ft 208 kts 148°
2026-04-15 14:57 30.21410 120.15058 6390 ft 197 kts 148°
2026-04-15 14:57 30.20267 120.15898 6040 ft 194 kts 148°
2026-04-15 14:57 30.19130 120.16732 5669 ft 191 kts 147°
2026-04-15 14:57 30.18015 120.17548 5295 ft 190 kts 147°
2026-04-15 14:58 30.16900 120.18365 4914 ft 188 kts 146°
2026-04-15 14:58 30.15817 120.19173 4523 ft 186 kts 140°
2026-04-15 14:58 30.15133 120.20373 4107 ft 182 kts 101°
2026-04-15 14:58 30.15310 120.21799 3727 ft 181 kts 68°
2026-04-15 14:59 30.15881 120.23085 3359 ft 179 kts 65°
2026-04-15 14:59 30.16452 120.24329 3047 ft 174 kts 63°
2026-04-15 14:59 30.17049 120.25578 2913 ft 177 kts 63°
2026-04-15 14:59 30.17632 120.26832 2671 ft 175 kts 64°
2026-04-15 15:00 30.18194 120.28078 2441 ft 175 kts 64°
2026-04-15 15:00 30.18745 120.29326 2198 ft 174 kts 64°
2026-04-15 15:00 30.19299 120.30586 1959 ft 173 kts 64°
2026-04-15 15:00 30.19844 120.31828 1730 ft 172 kts 64°
2026-04-15 15:01 30.20388 120.33063 1507 ft 172 kts 64°
2026-04-15 15:01 30.20920 120.34270 1277 ft 165 kts 64°
2026-04-15 15:01 30.21435 120.35434 1065 ft 158 kts 64°
2026-04-15 15:01 30.21926 120.36546 861 ft 152 kts 64°
2026-04-15 15:02 30.22398 120.37614 664 ft 146 kts 64°
2026-04-15 15:02 30.22846 120.38628 480 ft 141 kts 64°
2026-04-15 15:02 30.23294 120.39642 298 ft 141 kts 63°
2026-04-15 15:02 30.23739 120.40647 109 ft 139 kts 63°
2026-04-15 15:03 30.24170 120.41615 38 ft 127 kts 63°
2026-04-15 15:03 30.24504 120.42375 37 ft 80 kts 65°
2026-04-15 15:03 30.24557 120.42725 37 ft 18 kts 101°
2026-04-15 15:03 30.24481 120.42761 37 ft 13 kts 196°
2026-04-15 15:04 30.24394 120.42776 37 ft 13 kts 154°
2026-04-15 15:04 30.24328 120.42807 37 ft 7 kts 172°
2026-04-15 15:04 30.24270 120.42790 37 ft 9 kts 201°
2026-04-15 15:04 30.24218 120.42770 37 ft 6 kts 190°
2026-04-15 15:05 30.24199 120.42766 37 ft 1 kts 193°
2026-04-15 15:05 30.24185 120.42763 37 ft 1 kts 191°
2026-04-15 15:05 30.24184 120.42762 37 ft 0 kts 191°